CALSPHERE 1 1 00900U 64063C 26167.15565618 .00000536 00000+0 53707-3 0 9995 2 00900 90.2235 71.7468 0024074 300.7070 155.0866 13.76622460 71285 CALSPHERE 2 1 00902U 64063E 26167.23069480 .00000036 00000+0 41462-4 0 9993 2 00902 90.2373 75.7723 0016998 226.2000 258.6295 13.52900113856138 LCS 1 1 01361U 65034C 26166.75807954 .00000010 00000+0 27532-3 0 9997 2 01361 32.1354 180.4190 0012300 117.4343 242.7406 9.89310837209748 TEMPSAT 1 1 01512U 65065E 26167.16179322 .00000048 00000+0 79215-4 0 9993 2 01512 89.9990 212.5940 0067773 250.9888 170.4786 13.33594070959919 CALSPHERE 4A 1 01520U 65065H 26167.16616562 .00000090 00000+0 15307-3 0 9992 2 01520 89.8982 122.4978 0071927 105.7079 266.9794 13.36278172962574 OPS 5712 (P/L 160) 1 02826U 67053A 26167.30392120 .00005523 00000+0 77975-3 0 9993 2 02826 69.9172 40.4616 0000822 279.8965 80.2089 14.77709392 66102 OPS 5712 (P/L 153) 1 02874U 67053H 26167.26402494 -.00000004 00000+0 35428-4 0 9995 2 02874 69.9731 117.2852 0008577 214.8013 145.2533 13.96828177 6663 RIGIDSPHERE 2 (LCS 4) 1 05398U 71067E 26167.21754528 .00000548 00000+0 17266-3 0 9993 2 05398 87.6212 339.0787 0057988 234.8056 124.7705 14.37866299873745 COSMOS 2493 (SKRL-756 1) 1 39490U 13078A 26167.28581560 .00002602 00000+0 19557-3 0 9990 2 39490 82.4134 262.0683 0011831 243.6885 116.3125 15.02159549677826 COSMOS 2494 (SKRL-756 2) 1 39491U 13078B 26167.28541263 .00002390 00000+0 16677-3 0 9991 2 39491 82.4119 251.4617 0015687 201.5308 158.5261 15.04860442678671